[[{"header":{"parameterUnit":"m.s-1","parameterCategory":1,"la1":30.2991,"la2":30.254,"lo1":-89.0895,"lo2":-89.0444,"dy":0.0017,"dx":0.0017,"nx":28,"ny":28,"refTime":"2024-05-28T21:00:00:Z","depth":0,"parameterNumber":2,"parameterNumberName":"U-component_of_WINDS"},"data":[0,0,0,0,0,0,0,0,0,0,0,0,0,0,0,0,0,0,0,0,0,0,0,0,0,0,0,0,0,0,0,0,0,0,0,0,0,0,0,0,0,0,0,0,0,0,0,0,0,0,0,0,0,0,0,0,0,0,-1.1863,-1.1864,0,-1.1871,-1.1871,-1.1871,-1.187,-1.1869,-1.1869,-1.1869,-1.1876,-1.1876,-1.1876,0,0,0,0,0,0,0,0,0,0,0,0,0,-1.1847,-1.1848,-1.1863,-1.1864,-1.1864,-1.1871,-1.1871,-1.1871,-1.187,-1.1869,-1.1869,-1.1869,-1.1876,-1.1876,-1.1876,0,0,0,0,0,0,0,0,0,0,0,0,0,-1.1855,-1.1848,-1.1863,-1.1864,-1.1864,-1.1871,-1.1871,-1.1871,-1.187,-1.1869,-1.1869,-1.1869,-1.1876,-1.1876,-1.1876,-1.1883,0,0,-1.1878,-1.1878,0,0,0,0,0,0,0,0,-1.1854,-1.1855,-1.1864,-1.1864,-1.1864,-1.1869,-1.1868,-1.1875,-1.187,-1.1867,-1.1869,-1.1869,-1.1874,-1.1874,-1.1876,-1.1883,-1.1884,-1.1878,-1.1878,-1.1878,-1.1878,0,0,0,0,0,0,0,-1.1854,-1.1855,-1.1866,-1.1864,-1.1864,-1.1863,-1.1864,-1.1869,-1.1871,-1.1868,-1.1868,-1.1868,-1.1874,-1.1876,-1.1876,-1.1884,-1.1878,-1.1878,-1.1879,-1.1879,-1.1897,-1.1898,0,0,0,0,0,0,-1.1853,-1.1854,-1.1866,-1.1867,-1.1858,-1.1864,-1.1865,-1.1868,-1.1871,-1.1872,-1.1869,-1.1868,-1.1875,-1.1876,-1.1876,-1.1884,-1.1878,-1.1879,-1.1879,-1.1897,-1.1897,-1.1898,0,0,0,0,0,0,-1.1853,-1.1854,-1.1866,-1.186,-1.1862,-1.1864,-1.1868,-1.1868,-1.187,-1.1872,-1.1873,-1.187,-1.1875,-1.1876,-1.1882,-1.1885,-1.1879,-1.1879,-1.1897,-1.1897,-1.1897,-1.1901,0,0,0,0,0,0,-1.1852,-1.1854,-1.1857,-1.1861,-1.1862,-1.1871,-1.1868,-1.1868,-1.1871,-1.187,-1.1874,-1.1874,-1.1875,-1.1881,-1.1882,-1.1885,-1.188,-1.1897,-1.1897,-1.1897,-1.19,-1.1901,-1.1902,0,0,0,0,0,-1.1852,-1.1857,-1.1857,-1.1858,-1.1866,-1.1871,-1.1872,-1.1873,-1.1871,-1.1874,-1.1875,-1.1874,-1.1884,-1.1882,-1.1883,-1.1886,-1.1896,-1.1897,-1.1897,-1.19,-1.1901,-1.1902,0,0,0,0,0,0,-1.1853,-1.1858,-1.1857,-1.1864,-1.1867,-1.1871,-1.1874,-1.1874,-1.1877,-1.1877,-1.1878,-1.1878,-1.1884,-1.1886,-1.1883,-1.1893,-1.189,-1.1891,-1.1892,-1.1893,-1.1893,-1.1893,-1.188,0,0,0,0,0,-1.1854,-1.1859,-1.1862,-1.1868,-1.1869,-1.1872,-1.1874,-1.1875,-1.1878,-1.1879,-1.1881,-1.1884,-1.1888,-1.189,-1.1894,-1.1901,-1.1901,-1.1904,-1.1904,-1.1905,-1.1906,-1.1909,-1.191,-1.1899,-1.1899,-1.1899,0,0,-1.1856,-1.1859,-1.1862,-1.1868,-1.1871,-1.1875,-1.1873,-1.1877,-1.188,-1.188,-1.1885,-1.1887,-1.189,-1.1897,-1.1899,-1.1898,-1.1909,-1.1906,-1.1906,-1.1906,-1.191,-1.1911,-1.1912,-1.19,-1.19,-1.19,0,0,-1.1862,-1.1865,-1.187,-1.1873,-1.1877,-1.1879,-1.188,-1.1884,-1.1885,-1.1891,-1.189,-1.1894,-1.1901,-1.1903,-1.1905,-1.1913,-1.1912,-1.1915,-1.1918,-1.1922,-1.1923,-1.1923,-1.1926,-1.1927,-1.1915,-1.1915,-1.1915,0,-1.1864,-1.1871,-1.1873,-1.1878,-1.188,-1.188,-1.1885,-1.1888,-1.1893,-1.1895,-1.1893,-1.1902,-1.1904,-1.1911,-1.1913,-1.1915,-1.1916,-1.1914,-1.1923,-1.1923,-1.1924,-1.1927,-1.1928,-1.1915,-1.1915,-1.1915,-1.1915,0,-1.1874,-1.1878,-1.1882,-1.1887,-1.189,-1.1895,-1.1898,-1.1901,-1.1901,-1.1903,-1.1909,-1.1911,-1.1916,-1.1918,-1.1918,-1.1925,-1.1924,-1.1922,-1.1919,-1.1925,-1.1928,-1.1929,-1.1916,-1.1916,-1.1916,-1.1916,0,0,-1.188,-1.1887,-1.1888,-1.189,-1.1895,-1.1899,-1.1904,-1.1909,-1.1911,-1.1915,-1.1919,-1.1925,-1.1924,-1.1927,-1.1927,-1.193,-1.1936,-1.1929,-1.1929,-1.193,-1.1944,-1.1945,-1.1946,-1.1936,-1.1936,-1.1936,-1.1944,0,-1.1886,-1.1895,-1.1897,-1.1905,-1.191,-1.191,-1.1915,-1.1918,-1.192,-1.1924,-1.1926,-1.193,-1.1928,-1.193,-1.1933,-1.1935,-1.1939,-1.1934,-1.1939,-1.194,-1.1938,-1.1947,-1.1948,-1.1954,-1.1944,-1.1945,-1.1945,0,-1.1895,-1.1899,-1.1908,-1.1912,-1.1914,-1.1918,-1.1923,-1.1927,-1.1931,-1.1932,-1.1935,-1.1935,-1.194,-1.1938,-1.1945,-1.1942,-1.1944,-1.1945,-1.1945,-1.1945,-1.1942,-1.1947,-1.1956,-1.1957,-1.1946,-1.1946,-1.1946,0,-1.1898,-1.1906,-1.1913,-1.1915,-1.1921,-1.1923,-1.1926,-1.193,-1.1932,-1.1937,-1.1938,-1.1943,-1.1945,-1.1949,-1.195,-1.1948,-1.1957,-1.1954,-1.1958,-1.1958,-1.1959,-1.1959,-1.1969,-1.1961,-1.1961,-1.1961,-1.1961,0,-1.1905,-1.191,-1.1914,-1.1918,-1.1924,-1.1926,-1.1932,-1.1934,-1.1938,-1.1942,-1.1942,-1.1946,-1.1948,-1.1952,-1.1953,-1.1959,-1.196,-1.1961,-1.1961,-1.196,-1.196,-1.1961,-1.1961,-1.1962,-1.1961,-1.1961,-1.1961,0,-1.191,-1.1913,-1.192,-1.1925,-1.1926,-1.193,-1.1934,-1.1938,-1.194,-1.1945,-1.1947,-1.195,-1.1955,-1.1957,-1.1963,-1.1963,-1.197,-1.197,-1.1968,-1.1968,-1.1972,-1.1971,-1.1982,-1.1983,-1.1975,-1.1976,-1.1976,0,-1.1914,-1.1918,-1.1924,-1.1927,-1.1929,-1.1934,-1.1937,-1.194,-1.1943,-1.1948,-1.1951,-1.1956,-1.196,-1.1967,-1.197,-1.1975,-1.1974,-1.1978,-1.1975,-1.1975,-1.1974,-1.1974,-1.1974,-1.1978,-1.1978,-1.1979,-1.1979,0,-1.192,-1.1922,-1.1926,-1.1932,-1.1936,-1.194,-1.1944,-1.1946,-1.1949,-1.1953,-1.1958,-1.1961,-1.1968,-1.1972,-1.1977,-1.1979,-1.1979,-1.198,-1.1981,-1.198,-1.1979,-1.1979,-1.1969,-1.1979,-1.1979,-1.1979,-1.1979,-1.1979,-1.1924,-1.1928,-1.1933,-1.1938,-1.1942,-1.1946,-1.195,-1.1953,-1.1957,-1.1963,-1.1964,-1.1969,-1.1973,-1.198,-1.1982,-1.1986,-1.1985,-1.1987,-1.1987,-1.1987,-1.1987,-1.1979,-1.1987,-1.1987,-1.1987,-1.1987,-1.1987,0,-1.1931,-1.1934,-1.1939,-1.1945,-1.1949,-1.195,-1.1955,-1.1958,-1.1963,-1.1967,-1.1971,-1.1977,-1.1982,-1.1985,-1.199,-1.1993,-1.1993,-1.1994,-1.1993,-1.1994,-1.1988,-1.1987,-1.1994,-1.1994,-1.1994,-1.1994,-1.1994,-1.1994,-1.1935,-1.1941,-1.1943,-1.1951,-1.1955,-1.196,-1.1963,-1.1967,-1.197,-1.1977,-1.1981,-1.1983,-1.1987,-1.1992,-1.1996,-1.1997,-1.1999,-1.2,-1.2001,-1.1995,-1.1994,-1.1994,-1.1992,-1.2,-1.2,-1.2006,-1.2006,-1.2006]},{"header":{"parameterUnit":"m.s-1","parameterCategory":1,"la1":30.2991,"la2":30.254,"lo1":-89.0895,"lo2":-89.0444,"dy":0.0017,"dx":0.0017,"nx":28,"ny":28,"refTime":"2024-05-28T21:00:00:Z","depth":0,"parameterNumber":3,"parameterNumberName":"V-component_of_WINDS"},"data":[0,0,0,0,0,0,0,0,0,0,0,0,0,0,0,0,0,0,0,0,0,0,0,0,0,0,0,0,0,0,0,0,0,0,0,0,0,0,0,0,0,0,0,0,0,0,0,0,0,0,0,0,0,0,0,0,0,0,-0.7402,-0.7402,0,-0.7449,-0.7449,-0.745,-0.7456,-0.7456,-0.7455,-0.7455,-0.7505,-0.7507,-0.7509,0,0,0,0,0,0,0,0,0,0,0,0,0,-0.7318,-0.732,-0.7401,-0.7402,-0.7403,-0.7449,-0.7449,-0.745,-0.7456,-0.7456,-0.7455,-0.7455,-0.7505,-0.7507,-0.7509,0,0,0,0,0,0,0,0,0,0,0,0,0,-0.7359,-0.732,-0.7401,-0.7411,-0.7413,-0.7449,-0.745,-0.745,-0.7456,-0.7456,-0.7455,-0.7454,-0.7504,-0.7506,-0.7509,-0.7539,0,0,-0.7517,-0.7518,0,0,0,0,0,0,0,0,-0.7357,-0.7362,-0.7409,-0.7411,-0.7412,-0.7446,-0.7439,-0.748,-0.7457,-0.744,-0.7455,-0.7454,-0.7486,-0.749,-0.7501,-0.7541,-0.7544,-0.7517,-0.7519,-0.752,-0.7521,0,0,0,0,0,0,0,-0.7354,-0.736,-0.742,-0.741,-0.7412,-0.7414,-0.7419,-0.7446,-0.7466,-0.7441,-0.7442,-0.7447,-0.7487,-0.7498,-0.7502,-0.7544,-0.7517,-0.752,-0.7521,-0.7522,-0.7613,-0.7614,0,0,0,0,0,0,-0.7349,-0.7357,-0.7419,-0.7422,-0.7382,-0.7416,-0.7422,-0.7436,-0.7466,-0.747,-0.7448,-0.7447,-0.7494,-0.7499,-0.7504,-0.7541,-0.752,-0.7523,-0.7524,-0.7612,-0.7613,-0.7614,0,0,0,0,0,0,-0.7347,-0.7354,-0.7417,-0.739,-0.7398,-0.7418,-0.7434,-0.7437,-0.7448,-0.7471,-0.7475,-0.7455,-0.7494,-0.75,-0.753,-0.7543,-0.7524,-0.7526,-0.7611,-0.7612,-0.7613,-0.7616,0,0,0,0,0,0,-0.7345,-0.7353,-0.7365,-0.739,-0.7399,-0.7442,-0.7435,-0.7439,-0.7453,-0.7453,-0.7479,-0.7483,-0.7494,-0.7526,-0.7533,-0.7546,-0.7528,-0.761,-0.7612,-0.7613,-0.7615,-0.7617,-0.7619,0,0,0,0,0,-0.7342,-0.7364,-0.7365,-0.7373,-0.7414,-0.7443,-0.7448,-0.7459,-0.7454,-0.7465,-0.748,-0.7482,-0.754,-0.7529,-0.7537,-0.7551,-0.7609,-0.7611,-0.7613,-0.7614,-0.7617,-0.7619,0,0,0,0,0,0,-0.734,-0.7367,-0.7369,-0.74,-0.7419,-0.7444,-0.7459,-0.7462,-0.7483,-0.7482,-0.7496,-0.7502,-0.7532,-0.7545,-0.7532,-0.7582,-0.7574,-0.7578,-0.7573,-0.7576,-0.7578,-0.7574,-0.753,0,0,0,0,0,-0.7343,-0.7364,-0.7387,-0.7412,-0.7422,-0.7439,-0.7452,-0.7459,-0.7479,-0.7487,-0.7504,-0.7524,-0.7547,-0.7562,-0.7584,-0.7617,-0.7623,-0.763,-0.7633,-0.7634,-0.7637,-0.7656,-0.7659,-0.762,-0.762,-0.762,0,0,-0.735,-0.7368,-0.738,-0.7412,-0.7428,-0.745,-0.7445,-0.7469,-0.7485,-0.7491,-0.7521,-0.7534,-0.7557,-0.7589,-0.7603,-0.76,-0.7649,-0.7636,-0.7638,-0.764,-0.7658,-0.7662,-0.7665,-0.7621,-0.7621,-0.7621,0,0,-0.7374,-0.7389,-0.7412,-0.7427,-0.7451,-0.7462,-0.7467,-0.7492,-0.7501,-0.753,-0.7535,-0.7555,-0.7595,-0.7611,-0.7625,-0.7655,-0.7658,-0.7662,-0.7673,-0.7691,-0.7694,-0.7697,-0.7708,-0.7712,-0.7665,-0.7665,-0.7665,0,-0.738,-0.7413,-0.7423,-0.7447,-0.7461,-0.7467,-0.749,-0.7505,-0.7535,-0.7545,-0.754,-0.759,-0.7606,-0.7642,-0.7649,-0.766,-0.7667,-0.7659,-0.7693,-0.7696,-0.7699,-0.771,-0.7714,-0.7665,-0.7665,-0.7665,-0.7665,0,-0.7419,-0.7442,-0.7457,-0.7485,-0.7501,-0.7524,-0.7539,-0.7554,-0.756,-0.7572,-0.7602,-0.7622,-0.7649,-0.7657,-0.7663,-0.7694,-0.7692,-0.769,-0.7683,-0.7703,-0.7713,-0.7717,-0.7666,-0.7666,-0.7665,-0.7665,0,0,-0.7443,-0.7477,-0.7483,-0.7495,-0.7522,-0.754,-0.7563,-0.7589,-0.7602,-0.7622,-0.7643,-0.7676,-0.7674,-0.769,-0.7698,-0.7713,-0.7737,-0.771,-0.7711,-0.7714,-0.7772,-0.7773,-0.7778,-0.7739,-0.7739,-0.774,-0.777,0,-0.7471,-0.7512,-0.7523,-0.7559,-0.758,-0.7586,-0.7607,-0.7625,-0.7637,-0.7657,-0.7671,-0.7694,-0.769,-0.77,-0.7715,-0.773,-0.7748,-0.7728,-0.7759,-0.7759,-0.7753,-0.7784,-0.7785,-0.7813,-0.7775,-0.7775,-0.7776,0,-0.7508,-0.7528,-0.7566,-0.759,-0.7599,-0.7618,-0.7642,-0.7661,-0.7683,-0.769,-0.7707,-0.7714,-0.7739,-0.773,-0.7766,-0.7752,-0.7765,-0.7775,-0.7776,-0.7779,-0.7769,-0.7788,-0.7822,-0.7826,-0.7782,-0.7782,-0.7781,0,-0.7522,-0.756,-0.7587,-0.7598,-0.7626,-0.7639,-0.7651,-0.7672,-0.7687,-0.7708,-0.7718,-0.7742,-0.7756,-0.7775,-0.7788,-0.778,-0.7823,-0.7815,-0.783,-0.783,-0.7839,-0.7839,-0.7876,-0.7847,-0.7847,-0.7847,-0.7847,0,-0.7552,-0.7575,-0.7594,-0.7611,-0.7637,-0.7649,-0.7675,-0.7688,-0.7706,-0.7726,-0.7733,-0.7752,-0.7768,-0.7789,-0.7799,-0.7828,-0.7834,-0.7841,-0.7844,-0.7841,-0.784,-0.785,-0.7848,-0.7848,-0.7848,-0.7848,-0.7848,0,-0.7572,-0.7586,-0.7617,-0.7641,-0.7647,-0.7666,-0.7686,-0.7704,-0.7715,-0.7741,-0.7747,-0.7766,-0.7792,-0.7806,-0.7838,-0.7845,-0.7877,-0.7879,-0.787,-0.7871,-0.7886,-0.7884,-0.793,-0.7937,-0.7904,-0.7904,-0.7904,0,-0.7591,-0.7608,-0.7634,-0.7648,-0.766,-0.7682,-0.7697,-0.771,-0.7725,-0.7751,-0.7765,-0.7791,-0.7812,-0.7852,-0.7869,-0.7894,-0.7896,-0.7911,-0.79,-0.7897,-0.7897,-0.7896,-0.7898,-0.7913,-0.7913,-0.7913,-0.7913,0,-0.7621,-0.7627,-0.7648,-0.7671,-0.7689,-0.7708,-0.7727,-0.7738,-0.7754,-0.7771,-0.7797,-0.7813,-0.7846,-0.7871,-0.7897,-0.7911,-0.7915,-0.7917,-0.7922,-0.7919,-0.7913,-0.7917,-0.7875,-0.7916,-0.7915,-0.7915,-0.7915,-0.7915,-0.7641,-0.7658,-0.7678,-0.7701,-0.7717,-0.7735,-0.7752,-0.7766,-0.7787,-0.7814,-0.7821,-0.7848,-0.7869,-0.7905,-0.7919,-0.7941,-0.7938,-0.7946,-0.7947,-0.7949,-0.795,-0.7909,-0.7946,-0.7946,-0.7946,-0.7946,-0.7945,0,-0.7673,-0.7686,-0.7707,-0.7734,-0.7752,-0.7754,-0.7775,-0.7791,-0.7814,-0.7834,-0.7854,-0.7884,-0.7909,-0.7927,-0.7953,-0.7967,-0.797,-0.7973,-0.7973,-0.7976,-0.795,-0.7943,-0.7971,-0.7971,-0.7971,-0.7971,-0.7971,-0.7971,-0.7691,-0.7719,-0.7727,-0.7763,-0.7776,-0.7802,-0.7815,-0.7831,-0.7847,-0.7879,-0.79,-0.7912,-0.7931,-0.7958,-0.7981,-0.7986,-0.7996,-0.7999,-0.8004,-0.798,-0.7977,-0.7975,-0.7969,-0.8001,-0.8001,-0.8028,-0.8028,-0.8029]}]]